Location: Mexico
(19.4000°N, 99.1500°W)
Time: 09:38:28
(UTC-06:00)

ISS - Pass Details

Date: 13 February 2018
Orbit: 403 x 406 km, 51.6° (Epoch: 26 February)

Event Time Altitude Azimuth Distance (km) Brightness Sun altitude
Rises 20:05:29 0° 319° (NW) 2,309 0.5 -21.7°
Reaches altitude 10° 20:07:33 10° 317° (NW) 1,450 -0.6 -22.2°
Enters shadow 20:09:46 40° 309° (NW) 610 -2.7 -22.7°
